DW0226 Weather Reports


Display with metric or nautical units.
time (UTC)temp
F
wind
direction
speed
MPH
gust
MPH
rain 1hr
in
rain 24hr
in
rain mn
in
humidity
%
barometer
mb
20260502220016 61 274 5.0 10.0 0.00 0.00 0.00 46 1009.9
20260502215025 62 288 5.0 11.0 0.00 0.00 0.00 47 1010.0
20260502214053 62 292 3.0 10.0 0.00 0.00 0.00 47 1009.9
20260502213022 62 337 1.0 7.0 0.00 0.00 0.00 49 1010.0
20260502212032 60 309 2.0 10.0 0.00 0.00 0.00 47 1009.9
20260502211042 59 289 3.0 5.0 0.00 0.00 0.00 51 1009.9
20260502210031 59 263 2.0 10.0 0.00 0.00 0.00 51 1009.9
20260502205020 59 301 6.0 13.0 0.00 0.00 0.00 50 1009.7
20260502204031 59 257 4.0 9.0 0.00 0.00 0.00 49 1009.8
20260502203059 60 266 4.0 11.0 0.00 0.00 0.00 48 1009.7
20260502202045 62 268 5.0 12.0 0.00 0.00 0.00 49 1009.7
20260502201031 61 275 5.0 7.0 0.00 0.00 0.00 47 1009.8
20260502200047 60 306 1.0 9.0 0.00 0.00 0.00 50 1009.6
20260502195032 60 301 5.0 11.0 0.00 0.00 0.00 46 1009.9
20260502194022 60 300 5.0 12.0 0.00 0.00 0.00 47 1009.9
20260502193031 60 276 8.0 12.0 0.00 0.00 0.00 47 1010.0
20260502192020 61 300 1.0 7.0 0.00 0.00 0.00 53 1010.1
20260502191030 62 292 3.0 7.0 0.00 0.00 0.00 49 1010.2
20260502190021 62 344 0.0 4.0 0.00 0.00 0.00 55 1010.4
20260502185034 60 244 0.0 5.0 0.00 0.00 0.00 51 1010.8
20260502184015 61 54 1.0 5.0 0.00 0.00 0.00 50 1011.0
20260502182036 61 297 3.0 8.0 0.00 0.00 0.00 49 1011.1
20260502181023 61 308 2.0 7.0 0.00 0.00 0.00 52 1011.4
20260502164035 58 355 0.0 7.0 0.00 0.00 0.00 60 1012.3
20260502163026 59 355 0.0 3.0 0.00 0.00 0.00 60 1012.6
20260502162036 58 36 0.0 5.0 0.00 0.00 0.00 62 1012.5
20260502161022 57 335 0.0 14.0 0.00 0.00 0.00 61 1012.5
20260502152034 56 281 3.0 6.0 0.00 0.00 0.00 62 1013.0
20260502151022 56 310 0.0 4.0 0.00 0.00 0.00 66 1013.0
20260502123025 53 313 0.0 3.0 0.00 0.00 0.00 71 1012.3
20260502122032 52 316 0.0 5.0 0.00 0.00 0.00 73 1012.2
20260502121018 52 298 1.0 5.0 0.00 0.00 0.00 73 1012.2
20260502115058 51 303 1.0 3.0 0.00 0.00 0.00 75 1012.2
20260502114022 51 319 1.0 2.0 0.00 0.00 0.00 77 1012.4
20260502113029 51 308 1.0 3.0 0.00 0.00 0.00 77 1012.4
20260502112058 50 306 0.0 3.0 0.00 0.00 0.00 78 1012.4
20260502111029 50 272 0.0 5.0 0.00 0.00 0.00 79 1012.1
20260502110037 50 290 1.0 6.0 0.00 0.00 0.00 81 1012.0
20260502105024 49 292 0.0 2.0 0.00 0.00 0.00 84 1011.8
20260502104030 49 257 0.0 0.0 0.00 0.00 0.00 85 1011.9
20260502103024 48 260 0.0 1.0 0.00 0.00 0.00 86 1011.9
20260502102031 48 245 0.0 1.0 0.00 0.00 0.00 86 1011.8
20260502101038 48 328 0.0 0.0 0.00 0.00 0.00 86 1011.7
20260502091031 49 328 0.0 0.0 0.00 0.00 0.00 84 1011.1
20260502071033 49 322 0.0 1.0 0.00 0.00 0.00 90 1010.2
20260502070021 49 322 0.0 0.0 0.00 0.00 0.00 90 1010.3
20260502065028 49 322 0.0 0.0 0.00 0.00 0.00 90 1010.3
20260502064020 49 322 0.0 0.0 0.00 0.00 0.00 90 1010.3
20260502063027 49 322 0.0 0.0 0.00 0.00 0.00 89 1010.3
20260502062033 49 322 0.0 0.0 0.00 0.00 0.00 89 1010.5
20260502061022 49 322 0.0 0.0 0.00 0.00 0.00 88 1010.7
20260502060034 49 322 0.0 0.0 0.00 0.00 0.00 88 1010.7
20260502055023 50 322 0.0 1.0 0.00 0.00 0.00 88 1011.0
20260502054033 50 322 0.0 1.0 0.00 0.00 0.00 88 1011.0
20260502053022 50 322 0.0 0.0 0.00 0.00 0.00 87 1011.3
20260502052032 50 322 0.0 1.0 0.00 0.00 0.00 87 1011.3
20260502051019 50 322 0.0 2.0 0.00 0.00 0.00 86 1011.2
20260502050032 51 322 1.0 2.0 0.00 0.00 0.00 84 1011.1
20260502045025 52 102 0.0 0.0 0.00 0.00 0.00 83 1011.0
20260502044034 52 102 0.0 2.0 0.00 0.00 0.00 83 1010.8
20260502043025 53 102 2.0 3.0 0.00 0.00 0.00 82 1010.7
20260502042034 53 101 1.0 3.0 0.00 0.00 0.00 82 1010.8
20260502041028 53 88 0.0 2.0 0.00 0.00 0.00 81 1010.9
20260502040020 53 88 0.0 3.0 0.00 0.00 0.00 81 1010.8
20260502035029 53 88 0.0 2.0 0.00 0.00 0.00 80 1010.8
20260502034019 53 81 1.0 4.0 0.00 0.00 0.00 79 1010.8
20260502033054 53 105 0.0 2.0 0.00 0.00 0.00 78 1010.8
20260502032021 54 96 1.0 3.0 0.00 0.00 0.00 77 1010.7
20260502031052 54 86 1.0 4.0 0.00 0.00 0.00 77 1010.6
20260502030020 54 86 0.0 4.0 0.00 0.00 0.00 76 1010.5
20260502025029 54 103 2.0 4.0 0.00 0.00 0.00 75 1010.6
20260502024037 55 96 2.0 3.0 0.00 0.00 0.00 74 1010.4
20260502023025 55 121 1.0 5.0 0.00 0.00 0.00 73 1010.7
20260502022031 55 130 1.0 4.0 0.00 0.00 0.00 72 1010.7
20260502021022 56 126 0.0 6.0 0.00 0.00 0.00 71 1010.8
20260502020033 56 92 3.0 7.0 0.00 0.00 0.00 71 1010.6
20260502015021 56 148 2.0 7.0 0.00 0.00 0.00 70 1010.7
20260502014028 57 146 3.0 10.0 0.00 0.00 0.00 70 1010.5
20260502013019 57 123 0.0 8.0 0.00 0.00 0.00 70 1010.4
20260502012026 57 136 4.0 8.0 0.00 0.00 0.00 70 1010.3
20260502011036 58 85 6.0 13.0 0.00 0.00 0.00 69 1010.2
20260502010024 58 107 5.0 11.0 0.00 0.00 0.00 69 1009.8
20260502005035 58 156 4.0 14.0 0.00 0.00 0.00 68 1009.6
20260502004024 58 115 5.0 11.0 0.00 0.00 0.00 69 1009.5
20260502003052 58 102 2.0 6.0 0.00 0.00 0.00 68 1009.4
20260502002022 58 94 2.0 4.0 0.00 0.00 0.00 65 1009.4
20260502001034 59 82 1.0 4.0 0.00 0.00 0.00 63 1009.5
20260502000025 60 89 1.0 3.0 0.00 0.00 0.00 62 1009.5
20260501235030 61 275 0.0 4.0 0.00 0.00 0.00 60 1009.4
20260501234018 61 105 3.0 4.0 0.00 0.00 0.00 59 1009.2
20260501233030 61 182 0.0 3.0 0.00 0.00 0.00 64 1009.3
20260501232037 62 71 0.0 3.0 0.00 0.00 0.00 66 1009.3
20260501231023 62 98 2.0 7.0 0.00 0.00 0.00 64 1009.1
20260501230051 62 61 5.0 10.0 0.00 0.00 0.00 63 1009.2
20260501225040 63 105 4.0 9.0 0.00 0.00 0.00 63 1009.3
20260501224027 63 99 5.0 10.0 0.00 0.00 0.00 62 1009.2
20260501223036 63 104 5.0 11.0 0.00 0.00 0.00 61 1009.3
20260501222023 63 86 4.0 11.0 0.00 0.00 0.00 59 1009.4
20260501221034 63 86 8.0 12.0 0.00 0.00 0.00 58 1009.5